Temp
25 25 25 25 25 25 25 25 25 25 25 25 25 24 24 24 24 24 23 23 23 23 23 23 23 23 23 23 23 23 23 23 23 23 22 22 22 23 23 23 23 22
25 25 25 25 25 25 25 25 26 26 25 25 25 25 24 24 24 24 23 23 23 23 23 23 23 23 23 23 23 23 23 23 23 23 22 22 22 22 23 23 22 22
25 25 25 25 25 25 25 25 25 25 25 25 25 25 24 24 24 24 24 23 23 23 23 23 23 23 23 23 23 23 23 23 23 22 22 22 22 22 22 22 22 22
25 25 25 25 25 25 25 25 25 25 25 25 25 25 24 24 24 24 24 23 23 23 23 23 23 23 23 23 23 23 23 23 23 22 22 22 22 22 22 22 22 22
25 25 25 25 25 25 25 25 25 25 25 25 25 25 24 24 24 24 24 23 23 23 23 23 23 23 23 23 23 23 23 23 23 22 22 22 22 22 22 22 22 22
25 25 25 24 24 24 24 25 25 25 25 25 25 25 25 25 24 24 24 23 23 23 23 23 23 23 23 23 23 23 23 23 23 22 22 22 22 22 22 22 22 22
25 25 24 24 24 24 24 25 25 25 25 25 25 25 25 24 24 24 24 23 23 23 23 23 23 23 23 23 23 23 23 23 22 22 22 22 22 22 22 22 22 22
25 25 24 24 24 24 24 24 25 25 25 25 24 25 25 24 24 24 24 23 23 23 23 23 23 23 23 23 23 23 23 22 22 22 22 22 22 22 22 22 22 22
25 25 24 24 24 24 24 24 24 25 25 25 25 24 24 24 24 24 24 24 23 23 23 23 23 23 23 23 23 23 23 22 22 22 22 22 22 22 22 22 22 22
25 25 24 24 24 24 24 24 24 24 24 25 25 24 24 24 24 24 24 24 24 23 23 23 23 23 23 23 23 23 23 22 22 22 22 22 22 22 22 22 22 22
25 25 24 24 24 24 24 24 24 24 24 24 24 24 24 24 24 24 24 23 23 23 23 23 23 23 23 23 23 23 23 22 22 22 22 22 22 22 21 21 21 22
25 25 25 24 24 24 24 24 24 24 24 24 24 24 24 24 24 24 24 24 23 23 23 23 23 23 23 23 23 23 23 22 22 21 21 21 21 21 21 21 21 22
25 25 25 25 25 25 24 25 25 24 24 24 24 24 24 24 24 24 24 24 24 23 23 23 23 23 23 23 23 23 23 22 22 21 21 21 21 21 21 21 21 21
25 25 25 25 25 25 25 25 25 25 25 24 24 24 24 24 24 24 23 23 23 23 23 23 23 23 23 22 22 22 22 22 21 21 21 21 21 21 21 21 21 21
25 25 25 25 25 25 25 25 25 25 25 25 24 24 24 24 24 24 23 23 23 23 23 23 23 23 22 22 22 22 22 22 21 21 21 21 20 20 21 21 21 21
25 25 25 25 25 25 25 25 25 25 25 25 24 24 24 24 24 24 24 23 23 23 23 23 22 22 22 22 22 22 22 22 21 21 21 21 20 20 20 20 21 21
25 25 25 25 25 25 25 25 25 25 25 25 25 24 24 24 24 24 24 24 23 23 23 23 22 22 22 22 22 22 22 22 22 21 21 20 20 20 20 20 20 21
26 25 25 25 25 25 25 25 25 25 25 25 25 24 24 24 24 24 24 24 23 23 23 23 23 23 22 22 22 22 22 22 22 22 21 20 20 20 20 20 20 20
26 26 25 25 25 25 25 25 25 25 25 25 25 25 24 24 24 24 24 24 24 23 23 23 23 23 22 22 22 22 22 22 22 22 21 20 20 20 20 20 20 20
26 26 25 25 25 25 25 25 25 25 25 25 25 25 25 24 24 24 24 24 24 24 23 23 23 23 23 22 22 22 22 22 22 22 21 20 20 20 20 20 20 20
26 26 26 26 25 25 25 25 25 25 25 25 25 25 25 25 25 25 24 24 24 24 23 23 23 23 22 22 22 22 22 22 22 21 21 20 20 20 20 20 20 20
27 26 26 26 25 25 25 25 25 25 25 25 25 25 25 25 25 25 25 24 24 24 24 23 23 23 22 22 22 22 22 22 22 21 21 20 20 20 21 21 20 20
27 26 26 26 26 25 25 25 25 25 25 25 25 25 25 25 25 25 25 24 24 24 24 23 23 22 22 22 22 22 22 22 21 21 20 20 20 20 21 20 20 20
27 27 26 26 26 26 25 25 25 25 25 25 25 25 25 25 25 25 25 24 24 24 24 23 22 22 22 22 22 22 22 22 21 21 20 20 20 20 20 20 20 20
27 27 27 26 26 26 26 26 25 25 25 25 25 25 25 25 25 25 24 24 24 24 23 23 22 22 22 22 22 22 22 22 21 20 20 20 20 19 19 20 20 20
28 27 27 27 26 26 26 26 26 26 25 25 25 25 25 25 25 24 24 24 23 23 23 23 23 22 22 22 22 22 22 22 21 20 20 20 19 19 19 19 20 20
Height
779 782 784 786 788 790 792 793 795 797 798 800 802 803 804 806 809 811 812 814 816 818 819 821 822 823 824 825 826 827 828 828 829 830 831 832 832 833 834 835 835 836
776 779 781 783 785 787 789 791 792 794 795 797 799 800 802 804 807 808 810 812 814 815 817 818 819 821 822 823 824 824 825 826 827 828 829 830 830 831 832 833 834 835
774 775 778 780 781 784 786 788 790 791 793 794 796 798 800 802 804 806 808 809 811 813 814 816 817 818 819 820 821 822 823 824 825 826 827 828 828 829 830 831 832 833
770 772 774 776 778 781 783 785 787 788 790 791 793 795 797 799 802 803 805 807 808 810 811 813 814 815 817 818 819 820 821 822 823 824 825 826 826 827 828 830 830 831
766 768 770 773 776 778 781 782 784 785 787 788 790 793 794 797 799 800 802 804 805 807 809 810 811 813 814 815 816 817 818 819 821 822 823 823 824 825 826 828 828 829
762 764 767 770 773 775 777 779 781 782 784 785 787 790 791 793 795 797 799 801 802 804 805 807 808 809 811 813 814 815 816 817 818 819 820 821 822 823 824 825 826 827
757 760 764 767 770 772 774 776 778 779 780 783 784 786 788 790 792 793 795 797 799 801 802 803 804 806 808 810 811 812 813 814 815 816 817 818 819 821 821 823 824 824
752 756 760 764 767 769 771 773 774 776 778 780 781 783 785 786 788 790 792 794 796 797 798 800 801 803 805 806 808 809 810 812 813 813 814 815 816 817 818 820 821 822
747 751 755 759 762 764 767 769 771 772 774 776 777 780 782 783 785 787 789 791 792 794 795 796 798 799 801 803 804 806 807 808 809 810 811 812 813 814 815 817 819 820
742 746 750 754 757 760 762 764 767 769 771 772 774 776 778 780 782 784 785 787 788 789 791 793 794 796 797 799 800 802 803 804 805 806 807 808 809 810 813 815 817 819
738 741 745 748 751 754 757 760 763 765 767 769 770 772 774 776 779 780 782 783 783 785 787 788 790 792 793 795 796 798 799 800 802 803 804 805 807 809 811 814 816 817
733 736 739 742 746 749 753 756 759 761 763 765 766 768 771 772 774 776 777 778 779 781 783 784 786 788 790 791 793 794 796 797 799 800 802 803 805 807 810 811 813 814
728 730 733 736 740 744 748 751 754 757 758 760 762 765 767 768 770 771 772 774 776 778 779 781 783 785 786 788 789 791 793 795 796 798 800 802 804 805 807 808 810 811
722 726 728 731 735 739 744 747 750 753 754 756 759 761 762 764 765 767 769 772 773 775 776 778 780 781 783 784 786 789 790 792 794 796 797 800 801 802 804 805 807 808
718 722 725 728 732 735 739 742 745 748 750 753 755 756 758 760 762 765 767 769 770 771 774 776 777 777 778 781 783 785 787 789 791 793 795 797 798 799 801 802 804 805
714 718 721 724 727 730 733 737 740 743 746 748 750 752 755 757 760 762 764 765 766 768 770 772 772 773 775 777 779 782 785 787 789 791 792 794 795 797 799 800 801 803
710 713 717 720 722 725 728 731 735 738 741 744 746 749 752 754 757 759 759 761 762 764 766 767 768 769 771 773 776 779 782 784 786 788 789 791 793 794 796 797 798 800
705 708 712 715 717 720 723 726 730 734 737 740 742 745 748 750 752 754 755 757 759 761 762 763 764 765 767 770 773 777 780 782 784 785 786 788 790 791 793 794 796 797
700 703 707 710 712 715 719 722 726 729 732 735 738 741 744 746 748 749 751 753 755 757 758 759 760 762 764 767 770 774 778 780 782 783 784 785 787 789 791 792 794 795
696 698 701 705 707 711 715 718 721 724 728 732 735 738 740 742 743 745 747 750 751 752 754 755 756 757 760 763 768 772 775 777 779 780 781 783 784 786 788 789 791 792
690 693 696 699 703 708 711 713 717 720 724 728 731 734 735 737 739 741 743 745 747 748 750 751 751 753 757 761 765 769 772 774 776 777 779 780 782 783 785 786 788 789
684 688 691 694 699 703 705 709 712 715 719 723 727 730 732 734 736 738 740 741 743 745 746 746 748 751 755 759 763 766 769 771 773 775 776 778 779 781 782 783 785 787
678 682 685 689 694 697 700 703 706 711 716 720 724 727 729 731 732 734 736 737 739 741 742 744 747 750 753 757 761 764 767 769 771 772 773 775 776 778 779 781 784 786
673 676 680 684 688 690 694 698 703 708 712 716 720 722 724 727 728 730 733 735 736 739 741 744 747 748 751 755 758 762 765 767 768 770 771 773 774 776 778 780 782 783
668 671 675 678 682 686 690 695 699 704 709 713 716 718 721 723 726 728 730 732 735 738 740 743 745 747 750 753 756 760 763 765 767 768 770 771 773 775 777 779 780 781
664 668 671 674 678 682 687 692 697 701 706 709 712 715 718 721 723 726 728 730 733 736 738 741 743 746 749 752 755 758 761 762 764 766 767 769 771 773 775 777 778 779
Wind_Speed
40 39 39 38 37 36 35 36 36 35 35 34 34 35 36 34 32 32 31 30 29 30 29 28 26 25 25 23 23 24 24 21 18 19 19 19 19 19 20 19 16 14
40 39 39 38 37 36 36 36 37 36 36 35 36 36 37 36 34 34 33 31 31 30 30 30 28 27 27 25 25 25 25 23 20 20 21 20 20 21 21 19 17 15
40 39 39 38 38 37 36 36 36 37 37 36 36 37 37 37 36 36 34 33 32 31 30 30 29 29 28 27 26 26 25 24 24 23 22 22 21 21 22 20 18 17
41 40 40 39 39 38 37 37 36 37 37 37 37 38 38 37 36 36 36 34 33 32 31 31 31 31 31 29 28 27 26 25 26 25 24 24 23 22 23 22 19 18
42 42 41 40 39 37 37 37 38 38 38 38 39 39 38 38 37 37 37 36 35 33 33 33 32 32 33 32 30 28 27 27 27 27 26 26 24 23 23 23 21 20
43 42 41 39 38 37 37 38 39 39 39 39 39 39 39 38 38 38 38 38 37 35 34 35 35 34 34 34 31 30 29 28 29 29 28 28 27 24 24 25 24 22
43 42 41 39 38 37 38 38 39 40 40 40 40 40 40 39 38 39 39 39 39 37 36 37 37 36 36 35 33 32 31 30 30 31 30 30 29 27 27 26 26 25
43 42 41 39 38 38 38 38 39 40 41 40 40 41 40 39 39 40 40 40 40 39 39 39 38 38 38 36 35 35 34 33 32 33 32 32 31 31 30 29 29 28
43 42 41 39 39 39 39 40 40 40 41 41 41 41 40 40 40 40 41 42 41 41 40 41 40 39 39 38 37 36 36 36 35 35 35 35 34 33 32 31 30 30
43 42 40 40 40 40 40 41 40 40 40 41 41 41 40 41 40 40 41 42 42 42 42 42 42 41 40 39 38 37 37 38 37 37 37 37 36 35 33 32 31 31
43 42 41 41 41 41 41 41 41 40 41 41 41 41 41 41 41 41 42 43 44 44 44 43 43 42 41 40 40 39 38 39 38 38 38 38 37 35 32 31 31 31
42 42 42 43 43 42 42 42 41 40 41 41 41 41 40 41 42 43 43 44 45 44 44 45 44 43 43 42 41 40 39 39 39 38 37 36 35 33 31 31 31 31
43 43 43 44 44 43 42 41 41 41 41 42 42 41 40 41 42 43 44 44 44 44 44 45 44 43 43 43 42 41 40 39 38 37 35 34 33 32 32 32 32 32
44 44 43 44 44 43 42 41 41 41 41 41 41 41 41 42 42 43 43 42 43 44 44 43 43 43 43 42 41 40 40 38 37 35 34 32 32 32 32 32 33 33
43 42 42 42 42 42 42 42 42 42 41 40 40 41 42 42 41 41 40 40 42 42 42 41 42 43 43 43 41 40 39 38 37 35 34 33 32 32 32 32 32 33
42 41 41 41 41 42 43 43 42 42 41 41 40 41 41 40 39 39 39 41 41 41 40 40 41 42 43 43 43 41 39 38 36 35 34 33 32 31 31 32 32 32
41 41 40 41 42 42 43 43 43 42 41 41 40 40 40 39 38 39 40 42 41 40 40 40 41 43 43 43 43 41 39 38 36 35 34 33 32 32 32 32 31 31
41 41 40 41 41 42 43 43 42 41 40 40 39 39 38 38 39 40 42 42 40 39 40 41 42 44 43 43 42 41 40 38 36 35 34 33 33 33 33 32 30 31
42 41 41 41 42 43 42 41 41 41 40 39 39 38 38 38 39 40 41 41 40 40 41 42 43 43 43 42 41 41 40 39 38 36 34 32 32 33 32 31 30 30
41 41 41 41 42 42 41 40 41 40 39 39 38 38 38 38 39 40 40 39 40 41 41 42 43 44 43 41 40 39 39 40 39 37 34 32 31 32 32 31 30 30
41 41 42 41 41 40 40 40 40 39 39 38 37 37 39 39 40 40 39 39 41 41 40 42 44 43 40 39 39 38 39 40 39 36 33 31 31 31 32 31 30 30
42 42 41 41 41 40 40 40 39 39 39 38 36 37 38 38 38 39 39 40 40 39 41 42 40 37 36 36 37 37 38 38 39 36 33 31 30 31 32 31 29 28
44 43 41 41 40 40 40 40 40 39 38 37 36 36 36 37 38 39 40 40 39 39 41 39 33 31 32 33 34 36 36 37 38 35 32 31 30 31 31 28 26 25
45 44 42 41 41 41 41 40 38 38 37 37 37 36 36 38 38 38 37 38 38 39 38 34 29 28 29 30 32 34 35 36 37 34 31 30 29 28 26 23 23 23
45 44 43 41 41 41 40 39 39 38 37 37 38 38 37 37 36 34 34 34 35 35 33 30 28 27 26 27 29 30 32 34 35 32 29 28 26 24 21 19 19 20
43 43 42 42 42 41 40 39 38 37 36 37 37 36 35 33 33 32 31 31 31 30 29 29 28 25 23 24 26 27 29 33 33 31 29 28 27 24 22 20 19 19
Wind_Direction
207 206 206 207 208 207 204 202 202 202 205 208 208 207 207 206 204 203 205 206 205 206 207 207 207 207 208 209 210 211 212 213 209 204 201 201 206 206 202 203 207 207
207 207 207 208 209 210 208 207 207 207 209 211 212 210 208 206 205 204 205 206 206 206 207 209 209 208 209 211 210 209 210 212 211 207 206 207 209 208 205 204 205 209
208 208 208 208 210 210 210 210 211 211 211 212 212 210 207 205 205 205 206 207 207 206 207 208 207 206 209 210 207 207 210 211 211 209 210 213 213 211 208 206 208 213
208 209 209 210 210 211 211 210 210 210 210 210 208 207 205 205 205 205 206 207 208 207 207 206 206 206 210 212 210 211 212 213 212 212 214 216 217 215 211 209 211 215
208 210 210 210 210 211 211 210 209 208 207 207 206 205 205 205 205 205 205 207 208 209 208 207 208 210 211 213 214 215 214 213 212 212 215 216 216 217 212 211 214 217
208 210 210 211 210 210 210 210 209 208 207 206 205 204 205 206 206 206 206 206 207 209 210 210 212 213 212 212 215 216 214 212 210 211 215 217 216 217 216 214 217 219
206 209 210 210 210 210 211 210 210 209 208 207 206 206 206 207 208 208 207 207 207 209 211 211 213 213 212 212 214 215 214 212 210 211 215 217 218 219 219 219 219 221
205 207 208 209 209 211 212 212 211 210 209 207 207 207 208 208 209 208 208 208 208 210 211 212 212 212 211 212 214 215 215 214 212 212 215 217 218 220 220 221 222 223
203 205 206 207 208 210 212 213 212 211 209 208 208 208 209 210 210 209 208 208 209 210 211 211 212 212 213 214 215 216 216 216 215 215 216 217 218 220 221 220 222 224
202 203 203 205 207 210 211 212 213 211 209 209 209 209 210 210 210 210 209 209 210 211 211 211 211 212 214 216 217 218 218 218 218 218 218 219 220 221 221 220 221 224
201 201 201 204 206 209 211 212 212 211 210 210 209 210 210 210 210 210 210 210 211 211 211 212 213 213 214 216 218 220 221 221 220 220 221 222 223 223 222 221 223 226
201 201 201 203 206 208 210 211 211 211 211 211 210 210 210 210 210 210 212 212 213 213 212 213 214 215 215 217 218 220 222 222 222 222 223 224 225 226 226 225 225 228
201 202 202 203 205 208 209 210 211 212 212 211 211 210 210 210 210 211 213 214 214 214 214 215 215 216 217 218 218 220 221 222 222 222 223 225 226 227 228 228 228 229
202 203 203 203 205 207 208 210 211 212 213 212 211 211 211 211 212 212 213 214 215 216 216 216 216 216 217 218 218 219 220 221 222 222 222 224 226 228 229 230 230 231
202 203 203 204 204 206 208 210 211 213 213 213 212 211 212 213 213 213 213 215 216 217 217 217 217 218 218 217 217 217 219 221 222 222 222 223 225 227 229 231 233 234
201 203 203 204 203 205 207 209 211 212 213 213 213 212 213 213 214 214 215 217 218 217 217 217 218 219 219 219 218 217 219 220 221 222 223 224 225 227 230 232 233 234
201 202 203 203 204 205 207 208 210 211 212 213 213 213 213 213 213 214 216 218 218 218 218 218 219 221 221 220 220 219 220 221 222 223 224 224 224 226 229 231 232 234
201 202 202 203 204 205 207 208 209 211 212 212 212 212 212 212 212 215 217 219 219 219 219 220 222 223 222 221 221 220 221 222 224 225 225 224 223 226 229 231 231 233
200 201 202 203 204 205 207 207 208 210 211 211 211 212 211 211 213 215 217 218 218 219 221 222 224 225 224 222 221 221 221 222 225 226 226 224 223 225 228 230 231 233
200 201 203 204 205 205 205 206 208 210 210 210 210 210 211 212 213 215 216 217 218 220 221 223 226 226 224 222 221 221 221 223 225 226 226 226 225 226 228 230 232 234
200 201 202 203 204 204 204 206 208 209 210 210 209 209 211 213 214 215 216 217 219 219 221 224 227 226 224 221 220 221 222 223 223 224 226 227 226 227 230 232 235 235
200 201 202 202 202 202 203 205 206 207 208 208 208 210 212 213 215 216 217 218 219 218 221 225 227 225 222 220 220 221 222 221 221 222 224 226 226 227 231 234 237 236
201 200 200 200 200 200 202 203 204 205 206 206 206 208 210 212 214 216 218 218 218 218 221 223 224 223 221 219 219 220 219 219 219 220 222 225 226 228 231 234 237 238
201 200 200 198 198 200 201 202 202 203 204 204 205 207 209 212 214 215 217 218 217 219 220 220 220 221 219 218 218 218 217 217 219 219 220 224 226 228 230 232 235 234
201 200 199 198 198 200 200 200 200 201 202 203 205 208 210 212 212 213 214 215 216 218 218 217 218 218 217 217 217 216 216 218 219 217 217 221 223 221 220 220 222 223
201 200 200 199 199 199 199 199 199 199 199 201 204 207 209 209 209 208 209 210 211 213 214 214 215 215 213 215 216 215 216 218 217 215 216 219 220 217 213 212 216 221